#timestamp,LO_Frequency,Hit,StdDev 
1509181215.1,286046999.8,N
1509181216.0,286046999.8,N
1509181235.8,286047000.8,N
1509181255.6,286046998.8,N
1509181275.5,286047001.2,N
1509181295.3,286047000.7,N
1509181315.2,286046998.3,N
1509181335.9,286046998.9,N
1509181355.7,286046998.9,N
1509181375.6,286046999.1,N
1509181395.4,286046998.4,N
1509181415.2,286047000.3,N
1509181435.1,286047000.4,N
1509181436.0,286047000.4,N
1509181455.8,286047002.7,N
1509181475.7,286047001.1,N
1509181495.5,286046998.7,N
1509181515.3,286046998.7,N
1509181535.2,286046998.1,N
1509181555.9,286046998.2,N
1509181575.7,286046998.4,N
1509181595.6,286046998.8,N
1509181615.4,286046998.9,N
1509181635.3,286046998.4,N
1509181655.1,286047000.0,N
1509181656.0,286047000.0,N
1509181675.8,286046998.7,N
1509181695.7,286046998.5,N
1509181715.5,286047000.1,N
1509181735.3,286047000.0,N
1509181755.2,286047000.2,N
1509181775.0,286046998.3,N
1509181775.9,286046998.3,N
1509181795.8,286046999.3,N
1509181815.6,286046999.5,N
1509181835.4,286046996.6,Y
1509181855.3,286046998.5,P
1509181875.1,286047000.9,N
1509181895.9,286046998.4,N
1509181915.7,286046998.3,N
1509181935.5,286046999.8,N
1509181955.4,286047000.6,N
1509181975.2,286047000.6,N
1509181995.0,286047002.6,N
1509181995.9,286047002.6,N
1509182015.8,286047002.1,N
1509182035.6,286047002.2,N
1509182055.5,286047000.1,N
1509182075.3,286047002.2,N
1509182095.1,286047004.3,N
1509182115.9,286047003.9,N
1509182135.7,286047002.1,N
1509182155.6,286047001.8,N
1509182175.4,286047002.6,N
1509182195.2,286047004.4,N
1509182215.1,286047002.8,N
1509182216.0,286047002.8,N
1509182235.8,286046999.7,N
1509182255.6,286047000.1,N
1509182275.5,286047000.0,N
1509182295.3,286047002.1,N
1509182315.2,286047002.2,N
1509182335.9,286047003.4,N
1509182355.7,286047001.3,N
1509182375.6,286047001.8,N
1509182395.4,286047004.3,N
1509182415.2,286047004.3,N
1509182435.1,286047001.3,N
1509182436.0,286047001.3,N
1509182455.8,286047001.9,N
1509182475.7,286046999.9,N
1509182495.5,286047001.0,N
1509182515.3,286047000.7,N
1509182535.2,286046998.1,N
1509182555.0,286046998.5,N
1509182555.9,286046998.5,N
1509182575.8,286047000.4,N
1509182595.6,286047001.0,N
1509182615.4,286047000.9,N
1509182635.3,286047000.6,N
1509182655.1,286046998.6,N
1509182675.8,286047000.8,N
1509182695.7,286046998.7,N
1509182715.5,286046998.0,N
1509182735.4,286046995.6,N
1509182755.2,286046995.5,N
1509182775.0,286046993.7,Y
1509182775.9,286046993.7,P
1509182795.8,286046993.9,N
1509182815.6,286046993.4,N
1509182835.4,286046996.2,N
1509182855.3,286046994.0,N
1509182875.1,286046993.5,N
1509182895.9,286046993.8,N
1509182915.7,286046994.2,N
1509182935.5,286046993.9,N
1509182955.4,286046994.6,N
1509182975.2,286046996.4,N
1509182995.0,286046996.0,N
1509182995.9,286046996.0,N
1509183015.8,286046993.3,Y
1509183035.6,286046998.9,P
1509183055.5,286046999.1,N
1509183075.3,286046999.2,N
1509183095.1,286046996.6,N
1509183115.9,286046998.1,N
1509183135.7,286046999.5,N
1509183155.5,286046999.3,N
1509183175.4,286046996.8,N
1509183195.2,286046996.9,N
1509183215.1,286046996.8,N
1509183216.0,286046996.8,N
1509183235.8,286046997.2,N
1509183255.6,286046995.4,Y
1509183275.5,286046996.7,P
1509183295.3,286046997.5,P
1509183315.2,286046995.1,P
1509183335.9,286046997.8,N
1509183355.7,286046996.7,Y
1509183375.6,286047002.5,P
1509183395.4,286047002.5,N
1509183415.2,286047002.7,N
1509183435.1,286047002.8,N
1509183436.0,286047002.8,N
1509183455.8,286047002.2,N
1509183475.7,286047000.2,N
1509183495.5,286047002.4,N
1509183515.3,286047002.6,N
1509183535.2,286047002.7,N
1509183555.0,286047002.1,N
1509183555.9,286047002.1,N
1509183575.8,286047000.3,N
1509183595.6,286047000.2,N
1509183615.4,286047001.2,N
1509183635.3,286046999.9,N
1509183655.1,286046999.9,N
1509183675.8,286046998.1,N
1509183695.7,286047001.1,N
1509183715.5,286046998.5,N
1509183735.4,286046998.6,N
1509183755.2,286047000.6,N
1509183775.0,286046998.2,N
1509183775.9,286046998.2,N
1509183795.8,286047000.9,N
1509183815.6,286046999.9,N
1509183835.5,286047002.2,N
1509183855.3,286046999.7,N
1509183875.1,286047000.2,N
1509183895.9,286046999.9,N
1509183915.7,286046999.8,N
1509183935.6,286047001.1,N
1509183955.4,286046998.4,N
1509183975.2,286047001.1,N
1509183995.1,286047000.3,N
1509183996.0,286047000.3,N
1509184015.8,286046999.7,N
1509184035.6,286047002.2,N
1509184055.5,286047001.3,N
1509184075.3,286047002.0,N
1509184095.2,286047001.9,N
1509184115.9,286047002.8,N
1509184135.7,286047000.0,N
1509184155.6,286047000.0,N
1509184175.4,286046999.7,N
1509184195.2,286046999.8,N
1509184215.1,286047002.5,N
1509184216.0,286047002.5,N
1509184235.8,286047001.9,N
1509184255.7,286047004.0,N
1509184275.5,286047003.7,N
1509184295.3,286047003.8,N
1509184315.2,286047002.2,N
1509184335.0,286046999.8,N
1509184335.9,286046999.8,N
1509184355.7,286047000.0,N
1509184375.6,286047002.8,N
1509184395.4,286047000.2,N
1509184415.3,286047000.1,N
1509184435.1,286047000.2,N
1509184455.8,286047000.1,N
1509184475.7,286047000.5,N
1509184495.5,286047000.6,N
1509184515.3,286047000.9,N
1509184535.2,286047001.1,N
1509184555.0,286047000.2,N
1509184555.9,286047000.2,N
1509184575.8,286047000.1,N
1509184595.6,286047000.2,N
1509184615.4,286047000.7,N
1509184635.3,286047001.1,N
1509184655.1,286046998.1,N
1509184675.9,286046999.4,N
1509184695.7,286046999.4,N
1509184715.5,286046998.1,N
1509184735.4,286047000.5,N
1509184755.2,286047002.8,N
1509184775.0,286047002.6,N
1509184776.0,286047002.6,N
1509184795.8,286046999.7,N
